1512183600.99,28116,5.06,72910.3,-15.53,-46.21,-46.21,0,*6E
1512183602.23,28117,5.06,72908.3,-15.51,-46.35,-46.35,0,*6D
1512183603.51,28118,5.0,72906.8,-15.51,-46.35,-46.15,0,*60
1512183604.78,28119,5.0,72908.3,-15.51,-46.15,-46.21,0,*64
1512183606.03,28120,5.06,72910.0,-15.49,-46.21,-46.15,0,*67
1512183607.28,28121,5.06,72910.5,-15.51,-46.21,-46.21,0,*68
1512183608.52,28122,5.06,72908.3,-15.51,-46.21,-46.21,0,*6B
1512183609.75,28123,5.0,72906.3,-15.49,-46.01,-46.01,0,*63
1512183610.99,28124,5.06,72908.0,-15.53,-46.41,-46.35,0,*6C
1512183612.24,28125,5.0,72906.5,-15.51,-46.35,-46.35,0,*6C
1512183613.51,28126,5.0,72906.3,-15.51,-46.15,-45.95,0,*64
1512183614.79,28127,5.06,72910.0,-15.51,-46.21,-46.15,0,*69
1512183616.03,28128,5.0,72906.5,-15.51,-46.35,-46.21,0,*64
1512183617.31,28129,5.0,72906.8,-15.51,-46.35,-46.15,0,*62
1512183618.56,28130,5.06,72906.3,-15.51,-46.55,-46.35,0,*6E
1512183619.8,28131,5.06,72908.8,-15.51,-46.21,-46.35,0,*6C
1512183621.02,28132,5.06,72910.3,-15.49,-46.21,-46.21,0,*63
1512183622.25,28133,5.06,72908.0,-15.53,-46.35,-46.35,0,*69
1512183623.49,28134,5.0,72904.8,-15.51,-46.35,-46.35,0,*6C
1512183624.72,28135,5.0,72904.3,-15.53,-46.21,-46.21,0,*6F
1512183625.96,28136,5.06,72910.0,-15.51,-46.21,-46.21,0,*6E
1512183627.21,28137,5.06,72910.5,-15.51,-46.21,-46.01,0,*6D
1512183628.48,28138,5.0,72904.5,-15.51,-46.21,-46.15,0,*67
1512183629.71,28139,5.06,72906.8,-15.53,-46.21,-46.21,0,*63
1512183630.93,28140,5.06,72906.0,-15.49,-46.35,-46.21,0,*63
1512183632.15,28141,5.0,72904.3,-15.49,-46.21,-46.01,0,*65
1512183633.4,28142,5.0,72904.3,-15.49,-46.21,-46.15,0,*63
1512183634.7,28143,5.0,72906.8,-15.51,-46.61,-46.41,0,*6E
1512183635.94,28144,5.06,72908.3,-15.49,-46.35,-46.41,0,*61
1512183637.19,28145,5.06,72906.0,-15.51,-46.21,-46.21,0,*6A
1512183638.44,28146,5.06,72906.5,-15.51,-46.35,-46.35,0,*69
1512183639.68,28147,5.06,72906.3,-15.51,-46.55,-46.35,0,*6E
1512183640.95,28148,5.06,72910.0,-15.51,-46.55,-46.41,0,*62
1512183642.18,28149,5.0,72906.0,-15.53,-46.35,-46.35,0,*64
1512183643.42,28150,5.0,72904.5,-15.51,-46.55,-46.35,0,*68
1512183644.69,28151,5.0,72904.5,-15.51,-46.55,-46.41,0,*6A
1512183645.98,28152,5.0,72904.5,-15.51,-46.41,-46.41,0,*6C
1512183647.25,28153,5.06,72906.3,-15.51,-46.61,-46.55,0,*6A
1512183648.52,28154,5.06,72908.5,-15.51,-46.55,-46.41,0,*6F
1512183649.77,28155,5.0,72906.5,-15.53,-46.61,-46.55,0,*6E
1512183651.06,28156,5.06,72908.0,-15.51,-46.61,-46.61,0,*68
1512183652.32,28157,5.0,72908.3,-15.51,-46.83,-46.61,0,*65
1512183653.59,28158,5.06,72910.0,-15.51,-46.61,-46.55,0,*61
1512183654.85,28159,5.06,72910.5,-15.51,-46.75,-46.61,0,*62
1512183656.11,28160,5.06,72910.0,-15.53,-46.35,-46.41,0,*6C
1512183657.35,28161,5.06,72910.3,-15.51,-46.35,-46.35,0,*6C
1512183658.6,28162,5.0,72906.0,-15.53,-46.61,-46.75,0,*68
1512183659.86,28163,5.06,72910.0,-15.51,-46.75,-46.61,0,*6B
1512183661.09,28164,5.0,72904.8,-15.53,-46.97,-46.75,0,*67
1512183662.33,28165,5.06,72910.0,-15.53,-46.83,-46.83,0,*6A
1512183663.57,28166,5.0,72906.5,-15.53,-46.75,-46.61,0,*6C
1512183664.82,28167,5.06,72908.8,-15.53,-46.61,-46.75,0,*6D
1512183666.06,28168,5.0,72908.0,-15.53,-46.61,-46.55,0,*60
1512183667.29,28169,5.06,72910.0,-15.53,-46.55,-46.55,0,*66
1512183668.57,28170,5.0,72906.5,-15.57,-46.61,-46.61,0,*6A
1512183669.82,28171,5.06,72908.8,-15.59,-46.83,-46.69,0,*61
1512183671.11,28172,5.06,72908.3,-15.57,-46.49,-46.41,0,*60
1512183672.41,28173,5.06,72908.0,-15.57,-46.27,-46.27,0,*69
1512183673.7,28174,5.06,72910.8,-15.57,-46.69,-46.69,0,*6E
1512183674.98,28175,5.06,72910.0,-15.57,-46.69,-46.61,0,*67
1512183676.28,28176,5.06,72908.8,-15.57,-46.49,-46.49,0,*6C
1512183677.52,28177,5.0,72908.0,-15.53,-46.41,-46.35,0,*6A
1512183678.78,28178,5.06,72912.0,-15.59,-46.41,-46.41,0,*6C
1512183680.08,28179,5.06,72910.0,-15.57,-46.49,-46.49,0,*63
1512183681.35,28180,5.06,72908.5,-15.57,-46.27,-46.21,0,*63
1512183682.65,28181,5.06,72910.5,-15.57,-46.27,-46.27,0,*64
1512183683.89,28182,5.0,72906.8,-15.57,-46.21,-46.21,0,*67
1512183685.16,28183,5.06,72914.0,-15.57,-46.27,-46.21,0,*60
1512183686.46,28184,5.06,72908.0,-15.57,-46.27,-46.27,0,*61
1512183687.72,28185,5.06,72910.8,-15.59,-46.41,-46.41,0,*6E
1512183689.0,28186,5.06,72908.8,-15.57,-46.41,-46.41,0,*63
1512183690.29,28187,5.0,72906.5,-15.57,-46.69,-46.41,0,*68
1512183691.59,28188,5.06,72908.0,-15.57,-46.49,-46.49,0,*6D
1512183692.85,28189,5.06,72906.8,-15.59,-46.61,-46.61,0,*62
1512183694.1,28190,5.0,72906.0,-15.59,-46.41,-46.41,0,*6A
1512183695.4,28191,5.06,72910.0,-15.57,-46.61,-46.49,0,*6F
1512183696.69,28192,5.06,72908.5,-15.57,-46.69,-46.61,0,*6E
1512183697.98,28193,5.0,72908.3,-15.57,-46.69,-46.49,0,*65
1512183699.24,28194,5.0,72906.8,-15.59,-46.49,-46.41,0,*66
1512183700.54,28195,5.0,72904.5,-15.57,-46.69,-46.49,0,*63
1512183701.8,28196,5.06,72910.3,-15.59,-46.41,-46.49,0,*64
1512183703.09,28197,5.06,72908.3,-15.57,-46.69,-46.41,0,*69
1512183704.38,28198,5.06,72912.0,-15.57,-46.61,-46.61,0,*6C
1512183705.64,28199,5.06,72910.3,-15.59,-46.61,-46.61,0,*63
1512183706.9,28200,5.0,72906.5,-15.57,-46.83,-46.61,0,*62
1512183708.16,28201,5.06,72910.5,-15.59,-46.61,-46.61,0,*61
1512183709.42,28202,5.0,72910.0,-15.59,-46.49,-46.41,0,*6A
1512183710.71,28203,5.0,72904.5,-15.57,-46.69,-46.61,0,*65
1512183711.97,28204,5.0,72910.3,-15.59,-46.41,-46.27,0,*64
1512183713.27,28205,5.0,72904.8,-15.57,-46.49,-46.27,0,*63
1512183714.55,28206,5.06,72908.8,-15.57,-46.69,-46.69,0,*68
1512183715.81,28207,5.0,72906.0,-15.59,-46.41,-46.41,0,*67
1512183717.1,28208,5.0,72908.5,-15.57,-46.69,-46.61,0,*6E
1512183718.34,28209,5.0,72908.5,-15.59,-46.89,-46.83,0,*63
1512183719.61,28210,5.0,72908.0,-15.59,-46.49,-46.49,0,*61
1512183720.83,28211,5.06,72910.0,-15.59,-46.83,-46.83,0,*60
1512183722.11,28212,5.0,72908.8,-15.61,-46.89,-46.97,0,*67
1512183723.35,28213,5.06,72908.3,-15.61,-46.75,-46.75,0,*69
1512183724.61,28214,5.06,72910.3,-15.61,-46.69,-46.55,0,*61
1512183725.85,28215,5.06,72910.3,-15.61,-46.75,-46.75,0,*6F
1512183727.1,28216,5.0,72908.5,-15.63,-46.97,-46.89,0,*61
1512183728.34,28217,5.06,72908.3,-15.63,-46.75,-46.89,0,*6C
1512183729.58,28218,5.0,72908.0,-15.61,-46.55,-46.35,0,*64
1512183730.86,28219,5.06,72910.8,-15.61,-46.55,-46.49,0,*6E
1512183732.1,28220,5.06,72910.8,-15.63,-46.55,-46.49,0,*66
1512183733.37,28221,5.06,72908.5,-15.61,-46.49,-46.35,0,*63
1512183734.65,28222,5.06,72912.0,-15.61,-46.35,-46.15,0,*69
1512183735.93,28223,5.0,72904.3,-15.61,-46.35,-46.15,0,*68
1512183737.23,28224,5.06,72912.5,-15.61,-46.27,-46.15,0,*6C
1512183738.53,28225,5.06,72912.3,-15.61,-46.15,-46.07,0,*6F
1512183739.83,28226,5.06,72910.0,-15.61,-46.27,-46.15,0,*6E
1512183741.1,28227,5.06,72910.5,-15.61,-46.55,-46.49,0,*63
1512183742.35,28228,5.0,72910.5,-15.61,-46.35,-46.35,0,*61
1512183743.59,28229,5.0,72910.0,-15.61,-46.35,-46.35,0,*60
1512183744.89,28230,5.0,72910.0,-15.61,-46.49,-46.27,0,*60
1512183746.16,28231,5.0,72908.5,-15.61,-46.35,-46.27,0,*6A
1512183747.47,28232,5.0,72910.0,-15.61,-46.27,-46.15,0,*6B
1512183748.74,28233,5.06,72910.3,-15.61,-46.55,-46.49,0,*66
1512183750.01,28234,5.06,72910.5,-15.63,-46.27,-46.15,0,*6F
1512183751.29,28235,5.0,72908.8,-15.61,-46.49,-46.35,0,*66
1512183752.55,28236,5.06,72914.0,-15.59,-46.27,-46.41,0,*65
1512183753.79,28237,5.0,72908.3,-15.61,-46.55,-46.55,0,*6F
1512183755.06,28238,5.0,72908.0,-15.61,-46.69,-46.75,0,*6D
1512183756.33,28239,5.06,72910.5,-15.61,-46.89,-46.75,0,*62
1512183757.6,28240,5.06,72910.3,-15.61,-46.69,-46.75,0,*62
1512183758.87,28241,5.0,72908.3,-15.61,-46.49,-46.35,0,*65
1512183760.17,28242,5.0,72906.0,-15.61,-46.49,-46.49,0,*6D
1512183761.41,28243,5.0,72908.5,-15.63,-46.75,-46.69,0,*63
1512183762.67,28244,5.06,72912.5,-15.61,-46.55,-46.69,0,*64
1512183763.95,28245,5.06,72910.8,-15.63,-46.89,-46.89,0,*68
1512183765.22,28246,5.0,72906.5,-15.61,-46.89,-46.75,0,*6A
1512183766.49,28247,5.0,72910.3,-15.61,-47.09,-46.89,0,*61
1512183767.71,28248,5.0,72910.5,-15.63,-47.09,-46.97,0,*63
1512183768.96,28249,5.0,72910.3,-15.65,-46.83,-46.83,0,*62
1512183770.23,28250,5.0,72908.3,-15.63,-46.69,-46.69,0,*6C
1512183771.47,28251,5.06,72912.0,-15.63,-46.75,-46.69,0,*60
1512183772.72,28252,5.0,72910.3,-15.65,-46.83,-46.83,0,*68
1512183773.97,28253,5.0,72910.3,-15.65,-46.83,-46.83,0,*69
1512183775.2,28254,5.06,72912.8,-15.67,-46.97,-46.83,0,*69
1512183776.45,28255,5.0,72912.0,-15.65,-46.97,-46.97,0,*6F
1512183777.68,28256,5.06,72914.0,-15.67,-46.97,-46.83,0,*6B
1512183778.95,28257,5.06,72912.3,-15.65,-47.03,-46.97,0,*61
1512183780.17,28258,5.0,72908.0,-15.67,-46.97,-46.83,0,*65
1512183781.4,28259,5.0,72908.3,-15.67,-46.97,-46.83,0,*64
1512183782.62,28260,5.06,72914.3,-15.67,-46.97,-46.97,0,*6B
1512183783.87,28261,5.06,72914.3,-15.67,-47.03,-46.97,0,*66
1512183785.11,28262,5.06,72918.5,-15.67,-47.03,-46.97,0,*65
1512183786.37,28263,5.0,72908.3,-15.69,-47.23,-47.09,0,*6E
1512183787.61,28264,5.06,72912.0,-15.71,-47.23,-47.09,0,*60
1512183788.89,28265,5.06,72912.8,-15.69,-46.83,-46.89,0,*6A
1512183790.18,28266,5.0,72910.3,-15.69,-46.69,-46.69,0,*63
1512183791.44,28267,5.0,72908.5,-15.71,-46.61,-46.61,0,*6B
1512183792.73,28268,5.06,72914.3,-15.69,-47.03,-47.03,0,*6D
1512183793.96,28269,5.0,72912.5,-15.71,-46.83,-46.83,0,*65
1512183795.21,28270,5.0,72910.5,-15.71,-46.83,-46.69,0,*69
1512183796.5,28271,5.06,72912.3,-15.69,-46.49,-46.61,0,*6F
1512183797.76,28272,5.0,72910.8,-15.71,-46.69,-46.61,0,*67
1512183799.05,28273,5.0,72910.3,-15.69,-46.61,-46.61,0,*67
1512183800.32,28274,5.06,72912.0,-15.71,-46.61,-46.61,0,*69
1512183801.61,28275,5.0,72912.5,-15.69,-46.69,-46.61,0,*69
1512183802.87,28276,5.06,72910.5,-15.71,-46.41,-46.41,0,*6B
1512183804.14,28277,5.0,72910.8,-15.71,-46.41,-46.27,0,*6A
1512183805.43,28278,5.06,72914.0,-15.69,-46.41,-46.41,0,*6C
1512183806.72,28279,5.06,72914.3,-15.69,-46.69,-46.61,0,*65
1512183808.01,28280,5.0,72908.5,-15.69,-46.61,-46.69,0,*63
1512183809.28,28281,5.0,72908.3,-15.71,-46.69,-46.49,0,*61
1512183810.56,28282,5.0,72910.5,-15.71,-46.61,-46.49,0,*6A
1512183811.82,28283,5.06,72914.3,-15.71,-46.69,-46.69,0,*61
1512183813.12,28284,5.0,72912.0,-15.69,-46.49,-46.49,0,*6F
1512183814.39,28285,5.06,72914.0,-15.71,-46.69,-46.69,0,*67
1512183815.62,28286,5.0,72912.3,-15.71,-46.83,-46.83,0,*64
1512183816.87,28287,5.06,72914.8,-15.71,-46.89,-46.83,0,*6F
1512183818.14,28288,5.06,72914.0,-15.73,-46.69,-46.55,0,*67
1512183819.44,28289,5.0,72912.0,-15.73,-46.89,-46.89,0,*69
1512183820.74,28290,5.0,72910.5,-15.73,-46.89,-46.89,0,*61
1512183822.04,28291,5.0,72910.5,-15.73,-46.89,-46.89,0,*60
1512183823.28,28292,5.0,72908.8,-15.73,-47.09,-47.09,0,*63
1512183824.58,28293,5.0,72912.3,-15.73,-46.89,-46.89,0,*62
1512183825.85,28294,5.0,72910.5,-15.73,-46.89,-47.09,0,*6C
1512183827.15,28295,5.0,72912.5,-15.73,-46.89,-46.89,0,*64
1512183828.46,28296,5.0,72910.0,-15.73,-46.89,-46.89,0,*67
1512183829.67,28297,5.0,72912.0,-15.75,-46.97,-46.97,0,*60
1512183830.88,28298,5.0,72910.5,-15.75,-47.17,-47.09,0,*60
1512183832.13,28299,5.06,72916.0,-15.75,-46.89,-46.97,0,*61
1512183833.4,28300,5.0,72914.3,-15.73,-46.97,-46.89,0,*66
1512183834.64,28301,5.06,72912.3,-15.75,-47.09,-46.89,0,*67
1512183835.91,28302,5.0,72910.8,-15.75,-46.89,-46.89,0,*6D
1512183837.13,28303,5.0,72914.0,-15.75,-46.97,-46.97,0,*6C
1512183838.38,28304,5.0,72912.0,-15.77,-47.09,-46.97,0,*6F
1512183839.65,28305,5.0,72910.3,-15.77,-46.89,-46.97,0,*67
1512183840.89,28306,5.0,72912.8,-15.81,-47.17,-47.17,0,*62
1512183842.16,28307,5.0,72912.8,-15.77,-46.97,-46.89,0,*65
1512183843.42,28308,5.06,72912.0,-15.81,-46.83,-47.03,0,*65
1512183844.71,28309,5.06,72914.3,-15.81,-47.03,-47.03,0,*6D
1512183845.95,28310,5.0,72910.5,-15.81,-47.17,-47.17,0,*65
1512183847.19,28311,5.06,72912.3,-15.77,-47.09,-46.97,0,*6B
1512183848.47,28312,5.0,72910.5,-15.81,-47.03,-47.03,0,*67
1512183849.73,28313,5.0,72912.5,-15.81,-46.83,-46.83,0,*66
1512183850.97,28314,5.06,72912.8,-15.77,-46.55,-46.55,0,*68
1512183852.26,28315,5.0,72914.5,-15.81,-46.41,-46.41,0,*60
1512183853.51,28316,5.06,72918.3,-15.81,-46.83,-46.83,0,*63
1512183854.75,28317,5.0,72912.0,-15.77,-47.17,-46.97,0,*62
1512183855.99,28318,5.0,72914.8,-15.83,-47.09,-46.89,0,*66
1512183857.26,28319,5.0,72910.8,-15.83,-46.69,-46.69,0,*6E
1512183858.49,28320,5.06,72914.5,-15.83,-47.09,-47.03,0,*6E
1512183859.73,28321,5.06,72912.3,-15.83,-47.03,-47.09,0,*6F
1512183860.97,28322,5.0,72912.8,-15.83,-47.03,-46.83,0,*6F
1512183862.23,28323,5.0,72914.0,-15.83,-47.03,-47.03,0,*67
1512183863.5,28324,5.06,72914.0,-15.85,-47.09,-47.23,0,*6E
1512183864.78,28325,5.0,72914.0,-15.85,-47.09,-47.23,0,*6F
1512183866.02,28326,5.06,72916.3,-15.83,-47.31,-47.23,0,*61
1512183867.29,28327,5.06,72912.0,-15.85,-47.09,-47.03,0,*6F
1512183868.59,28328,5.06,72918.0,-15.85,-46.69,-46.69,0,*6A
1512183869.88,28329,5.06,72914.5,-15.85,-46.89,-47.03,0,*68
1512183871.15,28330,5.0,72912.0,-15.85,-47.09,-47.23,0,*6B
1512183872.39,28331,5.06,72916.5,-15.89,-47.09,-47.09,0,*6E
1512183873.63,28332,5.0,72914.5,-15.89,-46.97,-46.97,0,*6D
1512183874.92,28333,5.0,72914.3,-15.89,-46.89,-46.89,0,*6C
1512183876.22,28334,5.06,72912.5,-15.89,-46.89,-46.89,0,*6B
1512183877.49,28335,5.06,72914.5,-15.89,-46.89,-46.75,0,*69
1512183878.71,28336,5.0,72914.3,-15.91,-46.97,-46.97,0,*60
1512183879.92,28337,5.0,72912.8,-15.91,-47.09,-47.17,0,*6E
1512183881.17,28338,5.06,72918.3,-15.89,-46.97,-46.97,0,*67
1512183882.4,28339,5.0,72914.5,-15.89,-46.97,-47.09,0,*60
1512183883.64,28340,5.06,72916.0,-15.89,-47.09,-46.97,0,*6E
1512183884.86,28341,5.06,72916.8,-15.91,-47.09,-46.97,0,*66
1512183886.08,28342,5.06,72918.0,-15.91,-46.97,-47.09,0,*65
1512183887.29,28343,5.0,72910.0,-15.91,-47.17,-47.17,0,*62
1512183888.51,28344,5.0,72912.0,-15.91,-47.17,-47.31,0,*61
1512183889.72,28345,5.0,72914.8,-15.91,-47.09,-47.17,0,*6B
1512183890.96,28346,5.0,72912.8,-15.93,-47.17,-47.17,0,*65
1512183892.21,28347,5.0,72914.0,-15.93,-46.83,-46.97,0,*61
1512183893.48,28348,5.0,72912.5,-15.95,-47.23,-47.23,0,*6D
1512183894.75,28349,5.0,72912.3,-15.93,-47.17,-47.23,0,*6D
1512183895.96,28350,5.0,72914.3,-15.95,-47.17,-47.17,0,*64
1512183897.18,28351,5.0,72912.8,-15.95,-46.97,-46.97,0,*65
1512183898.42,28352,5.0,72912.5,-15.93,-47.17,-47.17,0,*60
1512183899.69,28353,5.0,72912.0,-15.93,-46.97,-47.03,0,*6D
1512183900.95,28354,5.06,72916.8,-15.93,-47.23,-47.17,0,*61
1512183902.22,28355,5.06,72914.5,-15.95,-47.23,-47.23,0,*61
1512183903.45,28356,5.0,72912.3,-15.95,-46.83,-46.83,0,*62
1512183904.67,28357,5.0,72914.3,-15.95,-46.83,-46.83,0,*63
1512183905.94,28358,5.06,72916.3,-15.95,-47.03,-47.03,0,*6C
1512183907.22,28359,5.06,72918.0,-15.93,-47.03,-47.03,0,*6B
1512183908.49,28360,5.06,72916.3,-15.95,-47.03,-47.03,0,*67
1512183909.7,28361,5.0,72912.8,-15.95,-47.17,-47.17,0,*66
1512183910.99,28362,5.0,72912.0,-15.97,-46.89,-46.89,0,*67
1512183912.26,28363,5.0,72914.3,-15.99,-47.23,-47.03,0,*6A
1512183913.53,28364,5.0,72912.3,-15.99,-46.89,-46.89,0,*6F
1512183914.83,28365,5.06,72916.5,-15.97,-46.89,-46.89,0,*60
1512183916.09,28366,5.06,72916.8,-15.99,-47.03,-47.03,0,*6D
1512183917.35,28367,5.0,72912.3,-15.99,-47.03,-47.03,0,*6C
1512183918.61,28368,5.06,72914.8,-15.97,-47.03,-47.09,0,*67
1512183919.9,28369,5.0,72914.0,-15.97,-46.89,-47.03,0,*6F
1512183921.19,28370,5.0,72914.5,-15.97,-47.03,-47.03,0,*64
1512183922.46,28371,5.0,72914.5,-15.99,-46.89,-46.89,0,*6B
1512183923.73,28372,5.0,72912.3,-15.99,-46.89,-47.03,0,*6B
1512183925.0,28373,5.0,72914.8,-15.99,-46.89,-46.89,0,*69
1512183926.29,28374,5.0,72914.0,-15.97,-47.03,-47.03,0,*60
1512183927.55,28375,5.06,72916.0,-15.99,-47.03,-47.23,0,*6D
1512183928.79,28376,5.0,72912.8,-15.99,-47.03,-47.09,0,*66
1512183930.05,28377,5.0,72912.5,-15.99,-47.03,-47.03,0,*6D
1512183931.33,28378,5.0,72912.3,-15.99,-46.89,-46.89,0,*62
1512183932.59,28379,5.0,72912.3,-15.99,-47.03,-47.23,0,*61
1512183933.83,28380,5.06,72916.0,-16.01,-47.17,-47.09,0,*68
1512183935.1,28381,5.0,72912.3,-16.01,-46.97,-46.89,0,*69
1512183936.37,28382,5.0,72914.3,-16.01,-46.89,-46.75,0,*66
1512183937.62,28383,5.06,72914.0,-16.01,-46.97,-46.75,0,*68
1512183938.89,28384,5.0,72916.5,-16.01,-46.75,-46.89,0,*60
1512183940.15,28385,5.0,72914.8,-16.01,-46.75,-46.69,0,*6F
1512183941.41,28386,5.06,72916.8,-16.01,-46.75,-46.69,0,*6C
1512183942.67,28387,5.0,72914.5,-16.01,-46.75,-46.69,0,*6D
1512183943.97,28388,5.0,72912.3,-16.01,-46.89,-46.89,0,*6F
1512183945.21,28389,5.0,72912.5,-16.05,-46.97,-46.97,0,*6A
1512183946.48,28390,5.0,72912.5,-16.01,-46.75,-46.69,0,*6B
1512183947.74,28391,5.0,72912.0,-16.01,-46.69,-46.55,0,*68
1512183948.97,28392,5.0,72914.5,-15.99,-46.83,-46.83,0,*66
1512183950.22,28393,5.0,72912.0,-16.01,-47.31,-47.31,0,*65
1512183951.46,28394,5.06,72914.5,-16.01,-46.97,-47.17,0,*6B
1512183952.7,28395,5.0,72912.0,-16.05,-47.09,-47.09,0,*67
1512183953.94,28396,5.0,72914.5,-16.05,-47.09,-47.31,0,*6F
1512183955.18,28397,5.06,72916.8,-16.05,-46.97,-47.09,0,*63
1512183956.42,28398,5.06,72916.8,-16.01,-46.97,-47.09,0,*68
1512183957.65,28399,5.0,72910.5,-16.05,-46.75,-46.75,0,*6B
1512183958.95,28400,5.0,72912.3,-16.05,-46.89,-46.89,0,*6C
1512183960.22,28401,5.0,72912.8,-16.05,-46.55,-46.49,0,*60
1512183961.51,28402,5.06,72914.0,-16.05,-46.27,-46.27,0,*6E
1512183962.78,28403,5.0,72914.0,-16.01,-46.69,-46.55,0,*64
1512183964.05,28404,5.0,72914.3,-16.01,-46.89,-46.75,0,*6F
1512183965.32,28405,5.0,72912.3,-16.05,-46.89,-47.09,0,*60
1512183966.56,28406,5.0,72914.5,-16.01,-46.55,-46.55,0,*6E
1512183967.85,28407,5.0,72912.0,-16.01,-46.41,-46.49,0,*67
1512183969.11,28408,5.0,72912.5,-16.05,-46.69,-46.55,0,*6B
1512183970.4,28409,5.06,72916.8,-16.01,-46.69,-46.69,0,*61
1512183971.67,28410,5.0,72912.5,-16.05,-46.89,-46.75,0,*6E
1512183972.94,28411,5.0,72914.0,-16.05,-46.89,-47.09,0,*65
1512183974.21,28412,5.0,72912.3,-16.01,-46.89,-46.75,0,*68
1512183975.47,28413,5.0,72914.3,-16.05,-46.75,-46.69,0,*63
1512183976.74,28414,5.0,72914.8,-16.01,-46.69,-46.55,0,*62
1512183978.0,28415,5.0,72914.5,-16.05,-46.75,-46.69,0,*65
1512183979.29,28416,5.0,72912.0,-16.05,-46.89,-46.89,0,*6B
1512183980.56,28417,5.0,72914.8,-16.05,-46.97,-46.89,0,*65
1512183981.85,28418,5.0,72912.3,-16.01,-46.89,-46.89,0,*61
1512183983.09,28419,5.0,72912.0,-16.05,-46.97,-47.09,0,*62
1512183984.36,28420,5.0,72912.3,-16.05,-46.69,-46.75,0,*63
1512183985.63,28421,5.0,72912.8,-16.01,-46.55,-46.49,0,*66
1512183986.86,28422,5.0,72912.0,-16.05,-46.75,-46.75,0,*6C
1512183988.1,28423,5.0,72912.8,-16.05,-46.75,-46.75,0,*6D
1512183989.37,28424,5.0,72910.5,-16.05,-46.89,-46.75,0,*69
1512183990.64,28425,5.0,72912.8,-16.05,-46.89,-46.75,0,*68
1512183991.86,28426,5.0,72914.5,-16.07,-46.75,-46.75,0,*6A
1512183993.07,28427,5.0,72912.3,-16.07,-46.75,-46.75,0,*6B
1512183994.3,28428,5.0,72910.8,-16.07,-46.83,-46.83,0,*64
1512183995.54,28429,5.06,72916.8,-16.07,-47.03,-47.17,0,*60
1512183996.78,28430,5.0,72912.3,-16.07,-47.03,-46.97,0,*61
1512183998.02,28431,5.0,72910.3,-16.07,-47.03,-46.97,0,*60
1512183999.3,28432,5.0,72910.8,-16.09,-47.03,-47.03,0,*61
1512184000.53,28433,5.0,72912.0,-16.07,-46.83,-46.83,0,*6E
1512184001.77,28434,5.06,72916.0,-16.07,-46.61,-46.55,0,*6E
1512184003.0,28435,5.0,72914.0,-16.07,-46.83,-46.83,0,*68
1512184004.24,28436,5.0,72912.0,-16.07,-46.97,-47.03,0,*67
1512184005.53,28437,5.0,72912.5,-16.09,-47.23,-47.23,0,*64
1512184006.78,28438,5.0,72912.3,-16.07,-47.17,-47.37,0,*67
1512184008.01,28439,5.0,72914.5,-16.07,-47.03,-47.17,0,*61
1512184009.28,28440,5.06,72912.8,-16.09,-46.83,-46.61,0,*68
1512184010.52,28441,5.0,72912.8,-16.07,-47.03,-46.97,0,*67
1512184011.77,28442,5.0,72912.8,-16.09,-46.83,-46.97,0,*63
1512184013.02,28443,5.0,72910.8,-16.09,-46.97,-46.83,0,*62
1512184014.3,28444,5.0,72912.0,-16.09,-47.03,-47.03,0,*60
1512184015.55,28445,5.0,72912.5,-16.09,-46.97,-46.83,0,*64
1512184016.8,28446,5.0,72912.5,-16.09,-46.97,-46.83,0,*67
1512184018.1,28447,5.0,72910.3,-16.09,-46.49,-46.49,0,*63
1512184019.34,28448,5.0,72916.3,-16.07,-46.75,-46.61,0,*67
1512184020.58,28449,5.0,72912.8,-16.09,-46.75,-46.75,0,*6D
1512184021.84,28450,5.0,72914.3,-16.09,-46.83,-46.61,0,*69
1512184023.09,28451,5.0,72912.5,-16.09,-46.97,-46.97,0,*64
1512184024.34,28452,5.0,72912.5,-16.09,-46.83,-46.83,0,*67
1512184025.6,28453,5.0,72914.3,-16.09,-46.55,-46.61,0,*61
1512184026.85,28454,5.0,72912.3,-16.09,-46.97,-46.83,0,*64
1512184028.11,28455,5.0,72914.0,-16.09,-46.97,-46.83,0,*65
1512184029.38,28456,5.0,72914.0,-16.09,-46.49,-46.35,0,*68
1512184030.65,28457,5.0,72912.3,-16.07,-46.15,-46.27,0,*6D
1512184031.95,28458,5.0,72912.8,-16.09,-46.27,-46.27,0,*6D
1512184033.22,28459,5.0,72914.5,-16.07,-46.07,-46.15,0,*61
1512184034.47,28460,5.0,72914.0,-16.07,-46.07,-45.87,0,*63
1512184035.74,28461,5.06,72916.5,-16.07,-46.27,-46.27,0,*69
1512184037.01,28462,5.0,72912.8,-16.07,-46.27,-46.27,0,*6A
1512184038.29,28463,5.0,72914.0,-16.07,-46.07,-46.07,0,*6B
1512184039.5,28464,5.0,72912.5,-16.07,-45.95,-45.95,0,*6C
1512184040.77,28465,5.0,72910.5,-16.05,-46.01,-46.07,0,*69
1512184042.07,28466,5.0,72910.5,-16.01,-46.49,-46.49,0,*68
1512184043.34,28467,5.0,72910.5,-16.05,-46.49,-46.55,0,*60
1512184044.63,28468,5.0,72914.0,-16.05,-46.89,-46.69,0,*6C
1512184045.92,28469,5.0,72912.3,-16.05,-46.89,-46.89,0,*63
1512184047.19,28470,5.0,72910.8,-16.05,-46.89,-46.97,0,*64
1512184048.48,28471,5.0,72912.0,-16.01,-46.41,-46.49,0,*66
1512184049.72,28472,5.0,72912.3,-16.05,-46.75,-46.75,0,*69
1512184051.01,28473,5.0,72908.5,-16.05,-46.27,-46.27,0,*68
1512184052.3,28474,5.0,72912.0,-16.05,-46.41,-46.27,0,*6F
1512184053.59,28475,5.0,72910.3,-16.05,-46.41,-46.49,0,*66
1512184054.88,28476,5.0,72908.3,-16.01,-46.41,-46.41,0,*69
1512184056.15,28477,5.0,72912.5,-16.01,-46.21,-46.49,0,*66
1512184057.41,28478,5.0,72908.5,-16.05,-46.49,-46.55,0,*6E
1512184058.68,28479,5.0,72912.3,-16.05,-46.55,-46.49,0,*6F
1512184059.97,28480,5.0,72912.5,-16.05,-46.69,-46.69,0,*64
1512184061.23,28481,5.0,72914.5,-16.05,-46.75,-46.89,0,*66
1512184062.47,28482,5.0,72912.3,-16.05,-46.97,-46.97,0,*66
1512184063.74,28483,5.0,72912.8,-16.05,-46.97,-46.89,0,*68
1512184064.98,28484,5.0,72910.8,-16.05,-46.97,-47.09,0,*66
1512184066.21,28485,5.0,72908.8,-16.05,-47.09,-47.09,0,*61
1512184067.45,28486,5.0,72914.0,-16.05,-46.97,-47.09,0,*64
1512184068.68,28487,5.0,72912.5,-16.07,-46.83,-46.83,0,*61
1512184069.95,28488,5.0,72912.3,-16.07,-46.61,-46.49,0,*64
1512184071.2,28489,5.0,72908.5,-16.07,-46.35,-46.27,0,*6C
1512184072.42,28490,5.0,72910.8,-16.07,-46.35,-46.35,0,*67
1512184073.64,28491,5.0,72912.8,-16.07,-46.55,-46.35,0,*60
1512184074.93,28492,5.0,72912.0,-16.05,-46.41,-46.41,0,*67
1512184076.21,28493,5.0,72912.0,-16.05,-46.41,-46.27,0,*66
1512184077.48,28494,5.0,72914.0,-16.01,-46.49,-46.55,0,*68
1512184078.78,28495,5.0,72912.3,-16.05,-46.49,-46.49,0,*60
1512184080.07,28496,5.0,72912.8,-16.05,-46.41,-46.49,0,*6B
1512184081.33,28497,5.0,72914.3,-16.05,-46.69,-46.55,0,*6D
1512184082.62,28498,5.0,72914.3,-16.05,-46.89,-46.69,0,*63
1512184083.86,28499,5.0,72912.8,-16.05,-46.55,-46.55,0,*6C
1512184085.1,28500,5.0,72912.3,-16.05,-46.21,-46.21,0,*6D
1512184086.37,28501,5.0,72912.3,-16.01,-46.21,-46.27,0,*6E
1512184087.61,28502,5.0,72912.3,-16.05,-46.21,-46.21,0,*6F
1512184088.87,28503,5.0,72914.5,-16.05,-46.07,-46.21,0,*6A
1512184090.15,28504,5.0,72912.0,-16.01,-46.01,-46.07,0,*6B
1512184091.44,28505,5.0,72912.3,-16.01,-46.07,-46.07,0,*6C
1512184092.69,28506,5.0,72908.3,-16.01,-46.01,-45.87,0,*62
1512184093.96,28507,5.0,72910.0,-16.01,-46.07,-46.01,0,*68
1512184095.26,28508,5.0,72912.8,-16.01,-46.07,-46.07,0,*61
1512184096.53,28509,5.0,72912.5,-16.01,-46.01,-46.07,0,*66
1512184097.75,28510,5.0,72914.3,-15.99,-45.95,-46.01,0,*64
1512184098.98,28511,5.0,72912.0,-15.99,-46.01,-46.01,0,*6B
1512184100.21,28512,5.0,72908.5,-15.99,-46.01,-46.01,0,*68
1512184101.48,28513,5.0,72910.0,-15.97,-46.01,-46.15,0,*62
1512184102.73,28514,5.0,72912.0,-15.99,-46.35,-46.41,0,*6D
1512184104.01,28515,5.0,72910.0,-15.97,-46.41,-46.41,0,*61
1512184105.27,28516,5.0,72908.3,-15.99,-46.35,-46.15,0,*6E
1512184106.57,28517,5.0,72908.0,-15.97,-46.49,-46.49,0,*63
1512184107.79,28518,5.0,72910.8,-15.99,-46.35,-46.21,0,*67
1512184109.01,28519,5.0,72906.3,-15.99,-46.35,-46.21,0,*66
1512184110.3,28520,5.0,72910.0,-15.97,-46.61,-46.61,0,*67